Berlin, NH

3:31 PM EDT on May 23, 2018 (GMT -0400)
Berlin Municipal

Weather History for KBML - November, 2013

Change the Weather History Date:

Wednesday, November 6, 2013

  Actual Average Record
Temperature  
Mean Temperature 40 °F -  
Max Temperature 55 °F 42 °F 73 °F (2015)
Min Temperature 25 °F 25 °F 14 °F (2011)
Degree Days  
Heating Degree Days 25    
Moisture  
Dew Point 31 °F    
Average Humidity 75    
Maximum Humidity 92    
Minimum Humidity 43    
Precipitation  
Precipitation 0.00 in - - ()
Sea Level Pressure  
Sea Level Pressure 30.23 in    
Wind  
Wind Speed 1 mph (North)    
Max Wind Speed 8 mph    
Max Gust Speed 17 mph    
Visibility 10 miles    
Events      
Averages and records for this station are not official NWS values.
T = Trace of Precipitation, MM = Missing Value Source: NWS Daily Summary

Daily Weather History Graph

Daily Weather History Graph

Search for Another Location

Airport or City:

Astronomy

Nov. 06, 2013 Rise Set
Actual Time 6:29 AM EST 4:26 PM EST
Civil Twilight 5:58 AM EST 4:57 PM EST
Nautical Twilight 5:23 AM EST 5:32 PM EST
Astronomical Twilight 4:49 AM EST 6:06 PM EST
Moon 9:44 AM EST (11/6) 7:24 PM EST (11/6)
Length of Visible Light 10h 58m
Length of Day
9h 57m
Waxing Crescent, 13% of the Moon is Illuminated
Nov 6
Waxing Crescent
Nov 10
First Quarter
Nov 17
Full
Nov 25
Last Quarter
Dec 2
New

Hourly Weather History & Observations

Time (EST) Temp. Windchill Dew Point Humidity Pressure Visibility Wind Dir Wind Speed Gust Speed Precip Events Conditions
12:52 AM 30.0 °F - 26.1 °F 85% 30.47 in 10.0 mi Calm Calm - N/A   Clear
1:52 AM 30.9 °F - 26.1 °F 82% 30.45 in 10.0 mi Calm Calm - N/A   Overcast
2:52 AM 28.0 °F - 25.0 °F 88% 30.44 in 10.0 mi Calm Calm - N/A   Scattered Clouds
3:52 AM 28.0 °F - 25.0 °F 88% 30.42 in 9.0 mi Calm Calm - N/A   Clear
4:52 AM 26.1 °F - 23.0 °F 88% 30.43 in 10.0 mi Calm Calm - N/A   Clear
5:52 AM 25.0 °F - 23.0 °F 92% 30.43 in 10.0 mi Calm Calm - N/A   Clear
6:52 AM 27.0 °F - 25.0 °F 92% 30.41 in 10.0 mi Calm Calm - N/A   Clear
7:52 AM 30.0 °F - 27.0 °F 88% 30.39 in 10.0 mi Calm Calm - N/A   Clear
8:52 AM 33.1 °F - 28.9 °F 85% 30.37 in 10.0 mi Calm Calm - N/A   Mostly Cloudy
9:52 AM 39.0 °F - 30.0 °F 70% 30.32 in 10.0 mi Calm Calm - N/A   Clear
10:52 AM 43.0 °F - 30.9 °F 62% 30.29 in 10.0 mi Calm Calm - N/A   Clear
11:52 AM 48.9 °F - 32.0 °F 52% 30.23 in 10.0 mi Calm Calm - N/A   Clear
12:52 PM 54.0 °F - 32.0 °F 43% 30.19 in 10.0 mi South 4.6 mph - N/A   Clear
1:52 PM 55.0 °F - 33.1 °F 43% 30.15 in 10.0 mi South 5.8 mph - N/A   Clear
2:52 PM 53.1 °F - 35.1 °F 50% 30.15 in 10.0 mi South 8.1 mph 17.3 mph N/A   Scattered Clouds
3:52 PM 51.1 °F - 36.0 °F 56% 30.14 in 10.0 mi South 4.6 mph - N/A   Clear
4:52 PM 46.0 °F - 36.0 °F 68% 30.12 in 10.0 mi Calm Calm - N/A   Clear
5:52 PM 46.0 °F - 37.0 °F 71% 30.11 in 10.0 mi Calm Calm - N/A   Clear
6:52 PM 43.0 °F - 36.0 °F 76% 30.07 in 10.0 mi Calm Calm - N/A   Clear
7:52 PM 41.0 °F - 37.0 °F 86% 30.04 in 10.0 mi Calm Calm - N/A   Clear
8:52 PM 42.1 °F - 37.0 °F 82% 30.01 in 10.0 mi Calm Calm - N/A   Clear
9:52 PM 44.1 °F - 37.9 °F 79% 29.97 in 10.0 mi Calm Calm - N/A   Clear
10:52 PM 41.0 °F - 37.9 °F 89% 29.93 in 10.0 mi Calm Calm - N/A   Clear
11:52 PM 42.1 °F 38.4 °F 37.9 °F 85% 29.90 in 10.0 mi North 5.8 mph - N/A   Partly Cloudy